{"data":{"norad_id":47377,"epoch":"2026-09-19T22:22:42.854016Z","epoch_age_seconds":71004,"freshness":"FRESH","line1":"1 47377U 21005AE  26262.93244044 -.00001005  00000+0 -20623-4 0  9998","line2":"2 47377  53.1609 242.3125 0001436  97.9423 262.1742 15.31697532312733","mean_motion":15.31697532,"eccentricity":0.0001436,"inclination_deg":53.1609,"raan_deg":242.3125,"arg_perigee_deg":97.9423,"mean_anomaly_deg":262.1742,"bstar":-2.0623e-5,"rev_number":31273,"period_min":94.013339443051,"perigee_km":469.76385242212,"apogee_km":471.73085200808,"semimajor_km":6848.8843522151,"source":"CELESTRAK","updated_at":"2026-09-20T09:00:38.592152Z"}}